FW1341 Weather Reports


Display with metric or nautical units.
time (UTC)temp
F
wind
direction
speed
MPH
gust
MPH
rain 1hr
in
rain 24hr
in
rain mn
in
humidity
%
barometer
mb
20260508165951 71 210 4.0 11.0 0.00 0.00 0.00 32 1010.8
20260508165451 70 200 5.0 16.0 0.00 0.00 0.00 31 1010.9
20260508164951 70 215 4.0 16.0 0.00 0.00 0.00 32 1011.0
20260508164451 70 184 4.0 12.0 0.00 0.00 0.00 32 1010.9
20260508163951 69 11 5.0 14.0 0.00 0.00 0.00 32 1011.1
20260508163452 69 295 4.0 14.0 0.00 0.00 0.00 32 1011.2
20260508162947 70 313 4.0 8.0 0.00 0.00 0.00 32 1011.3
20260508162448 69 290 3.0 11.0 0.00 0.00 0.00 32 1011.2
20260508161947 69 211 3.0 11.0 0.00 0.00 0.00 33 1011.4
20260508161447 69 285 3.0 12.0 0.00 0.00 0.00 33 1011.4
20260508160947 68 290 4.0 14.0 0.00 0.00 0.00 34 1011.5
20260508160448 67 323 5.0 14.0 0.00 0.00 0.00 33 1011.6
20260508155943 68 341 4.0 14.0 0.00 0.00 0.00 33 1011.7
20260508155443 68 313 3.0 8.0 0.00 0.00 0.00 33 1011.7
20260508154942 68 0 4.0 11.0 0.00 0.00 0.00 34 1011.7
20260508153942 67 210 3.0 14.0 0.00 0.00 0.00 34 1011.7
20260508153443 67 309 4.0 8.0 0.00 0.00 0.00 34 1011.8
20260508152939 67 316 3.0 8.0 0.00 0.00 0.00 35 1011.9
20260508152439 67 311 3.0 10.0 0.00 0.00 0.00 34 1012.0
20260508151940 67 224 3.0 10.0 0.00 0.00 0.00 34 1012.1
20260508150938 67 194 2.0 9.0 0.00 0.00 0.00 34 1012.2
20260508150440 66 318 4.0 11.0 0.00 0.00 0.00 35 1012.3
20260508145435 65 228 5.0 14.0 0.00 0.00 0.00 35 1012.4
20260508144936 65 97 4.0 11.0 0.00 0.00 0.00 35 1012.4
20260508144434 65 276 3.0 11.0 0.00 0.00 0.00 34 1012.4
20260508143935 65 243 3.0 9.0 0.00 0.00 0.00 35 1012.4
20260508143435 65 329 3.0 9.0 0.00 0.00 0.00 34 1012.4
20260508142931 65 323 3.0 9.0 0.00 0.00 0.00 35 1012.4
20260508142431 65 4 2.0 7.0 0.00 0.00 0.00 36 1012.4
20260508141932 64 255 2.0 8.0 0.00 0.00 0.00 36 1012.4
20260508141431 64 250 2.0 8.0 0.00 0.00 0.00 35 1012.5
20260508140931 64 226 2.0 7.0 0.00 0.00 0.00 36 1012.5
20260508140432 63 197 3.0 9.0 0.00 0.00 0.00 38 1012.5
20260508135931 63 276 3.0 10.0 0.00 0.00 0.00 38 1012.6
20260508135430 63 238 3.0 10.0 0.00 0.00 0.00 38 1012.7
20260508134931 63 242 1.0 9.0 0.00 0.00 0.00 40 1012.7
20260508134432 62 314 2.0 8.0 0.00 0.00 0.00 41 1012.8
20260508133931 62 332 2.0 8.0 0.00 0.00 0.00 42 1012.8
20260508133427 61 330 2.0 8.0 0.00 0.00 0.00 43 1012.7
20260508132928 62 330 1.0 8.0 0.00 0.00 0.00 43 1012.8
20260508132426 61 285 1.0 6.0 0.00 0.00 0.00 43 1012.8
20260508131927 61 242 1.0 8.0 0.00 0.00 0.00 43 1012.8
20260508131426 61 305 1.0 8.0 0.00 0.00 0.00 44 1012.8
20260508130422 60 204 1.0 5.0 0.00 0.00 0.00 45 1012.9
20260508125923 60 288 1.0 5.0 0.00 0.00 0.00 46 1013.0
20260508125422 60 315 1.0 5.0 0.00 0.00 0.00 47 1013.0
20260508124923 60 201 1.0 5.0 0.00 0.00 0.00 46 1012.9
20260508124422 59 304 1.0 6.0 0.00 0.00 0.00 47 1012.9
20260508123418 59 324 2.0 6.0 0.00 0.00 0.00 48 1012.7
20260508122920 59 274 1.0 6.0 0.00 0.00 0.00 47 1012.8
20260508122419 59 26 0.0 3.0 0.00 0.00 0.00 48 1012.8
20260508121918 59 348 0.0 2.0 0.00 0.00 0.00 46 1012.7
20260508121420 60 332 0.0 1.0 0.00 0.00 0.00 48 1012.6
20260508120921 59 36 0.0 1.0 0.00 0.00 0.00 49 1012.7
20260508120416 58 236 0.0 0.0 0.00 0.00 0.00 50 1012.5
20260508115917 57 214 0.0 2.0 0.00 0.00 0.00 49 1012.6
20260508115416 57 354 0.0 2.0 0.00 0.00 0.00 52 1012.6
20260508114915 57 339 0.0 1.0 0.00 0.00 0.00 52 1012.6
20260508114414 57 205 0.0 0.0 0.00 0.00 0.00 53 1012.6
20260508113916 57 77 0.0 0.0 0.00 0.00 0.00 59 1012.5
20260508112915 56 338 0.0 0.0 0.00 0.00 0.00 57 1012.3
20260508112415 55 264 0.0 0.0 0.00 0.00 0.00 61 1012.2
20260508111915 54 236 0.0 0.0 0.00 0.00 0.00 60 1012.1
20260508111416 54 58 0.0 0.0 0.00 0.00 0.00 60 1012.1
20260508110910 54 314 0.0 0.0 0.00 0.00 0.00 66 1012.1
20260508110411 52 315 0.0 0.0 0.00 0.00 0.00 65 1012.0
20260508105911 52 315 0.0 0.0 0.00 0.00 0.00 63 1011.8
20260508105410 51 315 0.0 0.0 0.00 0.00 0.00 68 1011.8
20260508104912 51 316 0.0 0.0 0.00 0.00 0.00 66 1011.7
20260508104412 51 316 0.0 0.0 0.00 0.00 0.00 69 1011.8
20260508103906 51 316 0.0 2.0 0.00 0.00 0.00 65 1011.7
20260508103406 51 316 0.0 3.0 0.00 0.00 0.00 65 1011.7
20260508102908 51 321 0.0 3.0 0.00 0.00 0.00 66 1011.7
20260508102407 51 274 1.0 4.0 0.00 0.00 0.00 65 1011.6
20260508101909 51 315 1.0 4.0 0.00 0.00 0.00 64 1011.6
20260508101407 50 332 0.0 4.0 0.00 0.00 0.00 68 1011.5
20260508100902 50 27 0.0 0.0 0.00 0.00 0.00 65 1011.4
20260508100403 51 27 0.0 0.0 0.00 0.00 0.00 63 1011.4
20260508095903 51 27 0.0 2.0 0.00 0.00 0.00 62 1011.3
20260508095402 51 27 0.0 2.0 0.00 0.00 0.00 63 1011.3
20260508094902 51 316 0.0 3.0 0.00 0.00 0.00 62 1011.2
20260508094401 51 324 0.0 5.0 0.00 0.00 0.00 62 1011.2
20260508093401 51 341 1.0 6.0 0.00 0.00 0.00 63 1011.2
20260508092358 52 28 1.0 7.0 0.00 0.00 0.00 63 1011.1
20260508091851 52 316 1.0 6.0 0.00 0.00 0.00 62 1011.1
20260508091352 52 304 1.0 5.0 0.00 0.00 0.00 62 1011.1
20260508090851 52 37 2.0 8.0 0.00 0.00 0.00 61 1011.0
20260508090348 52 75 3.0 8.0 0.00 0.00 0.00 61 1011.1
20260508085850 52 29 3.0 12.0 0.00 0.00 0.00 62 1010.9
20260508085349 52 43 2.0 12.0 0.00 0.00 0.00 62 1010.8
20260508084848 52 19 0.0 3.0 0.00 0.00 0.00 64 1010.7
20260508084342 52 43 0.0 1.0 0.00 0.00 0.00 64 1010.7
20260508083842 52 56 0.0 2.0 0.00 0.00 0.00 65 1010.7
20260508083340 52 297 0.0 2.0 0.00 0.00 0.00 65 1010.7
20260508082337 52 310 0.0 5.0 0.00 0.00 0.00 65 1010.6
20260508081837 52 308 0.0 5.0 0.00 0.00 0.00 64 1010.6
20260508081331 53 281 0.0 1.0 0.00 0.00 0.00 65 1010.6
20260508080329 53 359 0.0 4.0 0.00 0.00 0.00 65 1010.5
20260508075828 53 38 1.0 4.0 0.00 0.00 0.00 67 1010.4
20260508075330 53 12 0.0 4.0 0.00 0.00 0.00 65 1010.4
20260508074828 53 359 0.0 2.0 0.00 0.00 0.00 67 1010.3
20260508074328 53 319 0.0 2.0 0.00 0.00 0.00 67 1010.3
20260508073824 53 339 0.0 4.0 0.00 0.00 0.00 68 1010.2
20260508073327 53 11 0.0 4.0 0.00 0.00 0.00 68 1010.2
20260508072825 53 335 0.0 1.0 0.00 0.00 0.00 69 1010.0
20260508072326 53 261 0.0 1.0 0.00 0.00 0.00 70 1009.9
20260508071825 53 269 0.0 2.0 0.00 0.00 0.00 71 1009.8
20260508071320 53 307 1.0 5.0 0.00 0.00 0.00 71 1009.8
20260508070814 53 243 1.0 5.0 0.00 0.00 0.00 71 1009.8
20260508070316 54 349 0.0 5.0 0.00 0.00 0.00 71 1009.7
20260508065315 54 324 1.0 4.0 0.00 0.00 0.00 71 1009.6
20260508064815 54 283 1.0 5.0 0.00 0.00 0.00 71 1009.5
20260508064317 54 320 1.0 5.0 0.00 0.00 0.00 72 1009.5
20260508063810 54 338 1.0 5.0 0.00 0.00 0.00 72 1009.4
20260508063308 54 228 1.0 5.0 0.00 0.00 0.00 73 1009.4
20260508062806 54 312 1.0 5.0 0.00 0.00 0.00 74 1009.3
20260508062309 54 340 1.0 5.0 0.00 0.00 0.00 76 1009.3
20260508061305 53 317 0.0 4.0 0.00 0.00 0.00 79 1009.3
20260508060806 53 219 0.0 3.0 0.00 0.00 0.00 80 1009.2
20260508060302 53 322 0.0 4.0 0.00 0.00 0.00 80 1009.2
20260508055802 53 244 1.0 4.0 0.00 0.01 0.00 81 1009.3
20260508055306 53 321 0.0 4.0 0.00 0.01 0.00 82 1009.3
20260508053800 54 299 1.0 5.0 0.00 0.01 0.00 82 1009.1
20260508053301 53 214 0.0 5.0 0.00 0.01 0.00 82 1009.1
20260508052757 54 280 0.0 1.0 0.00 0.01 0.00 83 1009.1
20260508052257 54 273 0.0 1.0 0.00 0.01 0.00 83 1009.1
20260508051757 54 307 0.0 2.0 0.00 0.01 0.00 83 1009.0
20260508051257 54 312 0.0 2.0 0.00 0.01 0.00 83 1009.0
20260508050258 54 228 1.0 4.0 0.00 0.01 0.00 82 1009.0
20260508045757 54 262 1.0 5.0 0.00 0.01 0.00 82 1008.9
20260508045255 54 222 1.0 8.0 0.00 0.01 0.00 82 1008.9
20260508044254 54 308 1.0 5.0 0.00 0.02 0.00 82 1008.8
20260508043753 54 232 1.0 6.0 0.00 0.02 0.00 82 1008.8
20260508043251 54 321 2.0 6.0 0.00 0.03 0.00 81 1008.8
20260508042751 54 274 3.0 6.0 0.00 0.03 0.00 81 1008.7
20260508042243 54 285 3.0 6.0 0.00 0.03 0.00 81 1008.7
20260508041742 54 287 2.0 6.0 0.00 0.03 0.00 81 1008.7
20260508041242 55 309 1.0 6.0 0.00 0.03 0.00 80 1008.7
20260508040742 55 310 2.0 6.0 0.00 0.03 0.00 80 1008.6
20260508035738 55 205 2.0 6.0 0.00 0.03 0.03 80 1008.4
20260508035237 55 228 2.0 6.0 0.00 0.03 0.03 80 1008.4
20260508034738 55 304 1.0 8.0 0.00 0.03 0.03 80 1008.4
20260508034236 55 200 1.0 8.0 0.00 0.03 0.03 80 1008.3
20260508033735 55 307 2.0 6.0 0.00 0.03 0.03 79 1008.4
20260508033237 55 211 1.0 6.0 0.00 0.03 0.03 79 1008.4
20260508032729 55 210 1.0 4.0 0.00 0.03 0.03 79 1008.4
20260508032231 55 218 2.0 6.0 0.00 0.03 0.03 78 1008.3
20260508031728 56 212 2.0 6.0 0.00 0.03 0.03 78 1008.3
20260508030729 56 278 2.0 7.0 0.00 0.03 0.03 77 1008.3
20260508030226 56 250 1.0 6.0 0.00 0.03 0.03 77 1008.3
20260508025222 56 193 2.0 8.0 0.00 0.03 0.03 77 1008.2
20260508024721 56 264 1.0 5.0 0.00 0.03 0.03 77 1008.2
20260508024222 56 183 1.0 5.0 0.00 0.03 0.03 77 1008.3
20260508023720 56 188 1.0 5.0 0.00 0.03 0.03 78 1008.2
20260508023220 56 214 1.0 5.0 0.00 0.03 0.03 78 1008.1
20260508022715 56 179 1.0 4.0 0.00 0.03 0.03 78 1008.1
20260508022215 56 260 2.0 8.0 0.00 0.03 0.03 77 1008.2
20260508021716 56 185 2.0 8.0 0.00 0.03 0.03 77 1008.1
20260508021214 56 188 1.0 4.0 0.00 0.03 0.03 77 1008.2
20260508020216 56 214 3.0 10.0 0.00 0.03 0.03 76 1008.1
20260508015708 56 222 3.0 10.0 0.00 0.03 0.03 76 1008.0
20260508015207 56 215 2.0 8.0 0.00 0.03 0.03 75 1008.1
20260508014708 56 195 2.0 7.0 0.00 0.03 0.03 74 1008.0
20260508014210 56 278 2.0 8.0 0.00 0.03 0.03 74 1007.9
20260508012705 56 179 3.0 8.0 0.00 0.03 0.03 73 1007.8
20260508012205 56 145 3.0 11.0 0.00 0.03 0.03 73 1007.9
20260508011205 56 211 3.0 6.0 0.00 0.03 0.03 74 1007.8
20260508010705 56 221 2.0 6.0 0.00 0.03 0.03 73 1007.6
20260508010205 56 231 2.0 6.0 0.00 0.03 0.03 73 1007.6
20260508005706 56 200 2.0 10.0 0.00 0.03 0.03 72 1007.5
20260508005200 56 213 3.0 10.0 0.00 0.03 0.03 71 1007.5
20260508004657 56 242 4.0 10.0 0.00 0.03 0.03 70 1007.5
20260508003658 57 228 3.0 9.0 0.00 0.03 0.03 70 1007.3
20260508003156 57 231 4.0 9.0 0.00 0.03 0.03 69 1007.2
20260508002656 57 159 4.0 11.0 0.00 0.03 0.03 69 1007.2
20260508001650 57 203 5.0 11.0 0.00 0.03 0.03 69 1007.0
20260508001149 57 200 6.0 13.0 0.00 0.03 0.03 68 1007.0
20260508000651 58 184 5.0 13.0 0.00 0.03 0.03 68 1006.9
20260508000151 58 207 5.0 10.0 0.00 0.03 0.03 67 1006.8
20260507235651 58 229 4.0 11.0 0.00 0.03 0.03 67 1006.8
20260507235144 58 170 4.0 12.0 0.00 0.03 0.03 66 1006.8
20260507234644 58 280 4.0 12.0 0.00 0.03 0.03 65 1006.7
20260507234144 59 194 4.0 11.0 0.00 0.03 0.03 63 1006.6
20260507233144 60 204 4.0 11.0 0.00 0.03 0.03 61 1006.5
20260507232644 60 188 5.0 12.0 0.00 0.03 0.03 61 1006.4
20260507232137 60 200 5.0 13.0 0.00 0.03 0.03 60 1006.3
20260507231140 61 159 4.0 12.0 0.00 0.03 0.03 58 1006.2
20260507230640 61 181 5.0 13.0 0.00 0.03 0.03 58 1006.3
20260507230138 61 233 4.0 13.0 0.00 0.03 0.03 57 1006.2
20260507225639 61 198 5.0 10.0 0.00 0.03 0.03 57 1006.1
20260507225136 61 191 6.0 13.0 0.00 0.03 0.03 57 1006.0
20260507224634 61 221 6.0 13.0 0.00 0.03 0.03 56 1005.9
20260507224134 62 197 5.0 13.0 0.00 0.03 0.03 56 1005.9
20260507223634 62 163 5.0 13.0 0.00 0.03 0.03 54 1005.9
20260507223132 62 207 5.0 10.0 0.00 0.03 0.03 54 1005.8
20260507222129 62 174 4.0 10.0 0.00 0.03 0.03 53 1005.7
20260507221629 63 240 4.0 10.0 0.00 0.03 0.03 53 1005.8
20260507221129 63 198 4.0 10.0 0.00 0.03 0.03 53 1005.7
20260507220629 63 201 3.0 7.0 0.00 0.03 0.03 52 1005.7
20260507220131 63 205 3.0 10.0 0.00 0.03 0.03 50 1005.7
20260507215630 63 253 4.0 10.0 0.00 0.03 0.03 51 1005.8
20260507215131 63 194 3.0 8.0 0.00 0.03 0.03 51 1005.6
20260507214626 63 195 3.0 10.0 0.00 0.03 0.03 52 1005.7
20260507214127 63 161 4.0 10.0 0.00 0.03 0.03 51 1005.8
20260507213626 63 214 4.0 10.0 0.00 0.03 0.03 50 1005.8
20260507213124 63 215 4.0 8.0 0.00 0.03 0.03 51 1005.8
20260507212624 64 221 4.0 10.0 0.00 0.03 0.03 51 1005.8
20260507212124 64 245 4.0 10.0 0.00 0.03 0.03 51 1005.8
20260507211621 64 221 3.0 9.0 0.00 0.03 0.03 50 1005.8
20260507211123 64 218 3.0 10.0 0.00 0.03 0.03 51 1005.8
20260507210620 64 210 3.0 10.0 0.00 0.03 0.03 51 1005.8
20260507210121 64 250 4.0 10.0 0.00 0.03 0.03 51 1005.8
20260507205618 64 145 4.0 10.0 0.00 0.03 0.03 51 1005.7
20260507205120 64 184 4.0 13.0 0.00 0.03 0.03 50 1005.8
20260507204613 64 215 4.0 13.0 0.00 0.03 0.03 51 1005.8
20260507204112 64 228 4.0 11.0 0.00 0.03 0.03 51 1005.9
20260507203611 64 210 4.0 11.0 0.00 0.03 0.03 50 1005.7
20260507203112 64 283 4.0 13.0 0.00 0.03 0.03 50 1005.7
20260507202613 64 188 5.0 13.0 0.00 0.03 0.03 51 1005.7
20260507202111 65 217 5.0 12.0 0.00 0.03 0.03 50 1005.8
20260507201104 65 197 4.0 10.0 0.00 0.03 0.03 48 1005.7
20260507200608 66 187 4.0 10.0 0.00 0.03 0.03 48 1005.7
20260507200107 66 224 2.0 10.0 0.00 0.03 0.03 48 1005.6
20260507195607 66 190 2.0 8.0 0.00 0.03 0.03 46 1005.7
20260507195106 66 324 2.0 8.0 0.00 0.03 0.03 46 1005.6
20260507194559 65 217 2.0 8.0 0.00 0.03 0.03 47 1005.7
20260507194059 65 83 3.0 8.0 0.00 0.03 0.03 47 1005.7
20260507192600 65 158 3.0 8.0 0.00 0.03 0.03 48 1006.2
20260507191057 64 111 2.0 7.0 0.00 0.03 0.03 50 1006.3
20260507190557 64 181 1.0 7.0 0.00 0.03 0.03 48 1006.6
20260507190057 64 210 2.0 6.0 0.00 0.03 0.03 47 1006.8
20260507185058 64 165 3.0 7.0 0.00 0.03 0.03 47 1006.4
20260507184053 64 211 2.0 7.0 0.00 0.03 0.03 47 1006.6
20260507183555 63 260 2.0 8.0 0.00 0.03 0.03 47 1006.8
20260507183054 63 296 2.0 8.0 0.00 0.03 0.03 47 1006.9
20260507182554 63 253 1.0 5.0 0.00 0.03 0.03 46 1007.1
20260507182053 62 192 2.0 6.0 0.00 0.03 0.03 46 1006.9
20260507181552 63 93 1.0 6.0 0.00 0.03 0.03 44 1007.0
20260507181048 63 211 0.0 5.0 0.00 0.03 0.03 45 1007.3
20260507180546 62 64 1.0 3.0 0.00 0.03 0.03 47 1007.2
20260507180046 62 32 1.0 4.0 0.00 0.03 0.03 46 1007.3
20260507175546 62 266 1.0 4.0 0.00 0.03 0.03 46 1007.2
20260507175045 62 23 1.0 6.0 0.00 0.03 0.03 47 1007.2
20260507174548 61 319 1.0 6.0 0.00 0.03 0.03 46 1007.3
20260507174042 61 13 1.0 4.0 0.00 0.03 0.03 48 1007.3
20260507173040 60 101 1.0 3.0 0.00 0.03 0.03 49 1008.0
20260507172540 60 98 1.0 4.0 0.00 0.03 0.03 48 1007.9
20260507172040 60 89 0.0 4.0 0.00 0.03 0.03 48 1008.1
20260507171540 60 200 0.0 2.0 0.00 0.03 0.03 51 1007.9
20260507171039 60 94 0.0 2.0 0.00 0.03 0.03 50 1008.1